Regional Weather Roundup
Issued by NWS Northern Indiana

Home | Current Version | Previous Version | Text Only | Print | Product List | Glossary On
Versions: 1 2 3 4 5 6 7 8 9 10 11 12 13 14 15 16 17 18 19 20 21 22 23 24 25 26 27 28 29 30 31 32 33 34 35 36 37 38 39 40 41 42 43 44 45 46 47 48 49 50
000
ASUS43 KIWX 240810
RWRIWX

KIWX WEATHER ROUNDUP
NATIONAL WEATHER SERVICE NORTHERN INDIANA
400 AM EDT THU APR 24 2014

NOTE: "FAIR" INDICATES FEW OR NO CLOUDS BELOW 12,000 FEET WITH NO
SIGNIFICANT WEATHER AND/OR OBSTRUCTIONS TO VISIBILITY.

* THESE STATIONS ARE NOT UNDER NWS QUALITY CONTROL. THEY ALSO MAY NOT
  REPORT WEATHER SUCH AS PRECIPITATION OR FOG.

INZ001>027-240900-
NORTHERN INDIANA

CITY           SKY/WX    TMP DP  RH WIND       PRES   REMARKS
GARY*          CLOUDY    42  38  83 NE3       30.07S
VALPARAISO     LGT RAIN  43  37  79 CALM      30.07R
MICHIGAN CITY* LGT RAIN  45  32  61 CALM      30.07S
LAPORTE*       CLOUDY    45  33  63 E5        30.07R
SOUTH BEND     CLOUDY    49  31  49 E6        30.08R
GOSHEN         CLOUDY    50  28  42 E7        30.07R
MONTICELLO*    CLOUDY    50  38  63 E5        30.01F
LOGANSPORT*    CLOUDY    46  37  71 E7        30.05R
ROCHESTER*     CLOUDY    52  32  46 E5        30.06R
WARSAW*        CLOUDY    48  30  49 E6        30.07R
ANGOLA*        MOCLDY    46  34  61 SE6       30.08R
FORT WAYNE     CLOUDY    48  34  58 SE9       30.07S
HUNTINGTON*    CLOUDY    49  32  52 SE6       30.05S
PERU/GRISSOM   CLOUDY    50  39  66 E6        30.04R
MARION*        CLOUDY    49  32  51 SE8       30.06R

$$
INZ028>050-240900-
CENTRAL INDIANA

CITY           SKY/WX    TMP DP  RH WIND       PRES   REMARKS
LAFAYETTE      CLOUDY    50  36  58 SE8       30.02S
KOKOMO*        CLOUDY    48  36  61 SE6       30.05R
MUNCIE*          N/A     49  33  54 SE9       30.05S
INDIANAPOLIS   CLOUDY    51  32  48 SE12      30.02S

$$
MIZ043>046-050>051-056>058-064>065-071>073-077>080-240900-
SOUTHWEST LOWER MICHIGAN

CITY           SKY/WX    TMP DP  RH WIND       PRES   REMARKS
BATTLE CREEK   CLOUDY    47  28  47 E5        30.09S
BENTON HARBOR  CLOUDY    44  32  62 E6        30.07S
COLDWATER*     CLOUDY    46  29  49 SE6       30.09R
HILLSDALE*     CLOUDY    46  29  52 SE6       30.09R
HOLLAND        CLOUDY    45  32  60 E6        30.09F
GRAND RAPIDS   CLOUDY    45  30  55 E9        30.10R
KALAMAZOO      CLOUDY    47  30  51 E3        30.09R
STURGIS*       CLOUDY    48  28  46 E9        30.08R
THREE RIVERS*  CLOUDY    48  27  44 E5        30.09S

$$
OHZ001>008-015>018-024>025-240900-
NORTHWEST OHIO

CITY           SKY/WX    TMP DP  RH WIND       PRES   REMARKS
WAUSEON*       CLOUDY    45  32  61 SE7       30.10S
DEFIANCE       CLOUDY    48  31  51 SE5       30.10S
FINDLAY        CLOUDY    44  31  60 SE7       30.09S
TOLEDO EXPRESS CLOUDY    44  30  57 E3        30.11R
TOLEDO METCALF CLOUDY    43  32  65 E5        30.13R
LIMA           CLOUDY    46  31  55 SE10      30.08F

$$
&&



USA.gov is the U.S. government's official web portal to all federal, state and local government web resources and services.